Dewpoint
62 62 63 62 62 62 61 61 60 60 60 61 59 57 58 58 57 58 58 57 55 56 58 55 55 55 54 55 56 55 53 54 51 46 47 49 43 43 52 49 52 51 49 49 45 39 40 38 37 41 43 40 40 42 47 41 43 46 45 45 43 40 40
63 63 63 62 62 61 60 59 59 59 60 60 59 57 57 58 59 56 56 56 55 55 55 53 52 52 53 53 52 52 50 51 53 51 50 48 48 48 50 48 47 47 46 45 46 47 46 41 39 39 37 42 43 45 42 44 43 41 44 46 43 44 45
63 63 62 62 61 60 59 59 59 59 58 57 56 56 56 55 54 55 51 51 53 53 53 51 51 51 52 52 52 51 51 49 50 49 48 48 47 46 47 46 45 45 44 43 43 44 45 45 41 38 40 37 38 41 45 42 42 41 42 43 45 43 40
63 62 61 61 61 60 58 58 59 58 58 58 57 56 56 56 55 53 50 51 53 55 53 51 51 50 51 50 51 51 50 49 49 49 49 48 47 46 44 44 44 44 43 43 42 44 42 41 41 41 41 41 41 42 42 42 44 40 39 40 41 41 40
62 61 61 60 60 59 58 58 60 58 57 56 57 56 55 54 54 54 54 50 49 48 48 48 49 49 50 51 51 52 51 50 50 49 47 46 45 45 45 45 45 45 45 44 44 43 43 42 41 40 38 37 39 42 44 41 41 43 42 40 39 41 40
62 61 60 60 60 59 59 59 59 57 56 55 55 55 55 53 53 53 51 50 49 51 50 49 49 50 49 49 49 49 49 48 48 47 47 47 46 45 44 44 43 43 44 45 44 42 43 41 39 37 38 40 38 39 41 41 39 42 41 39 38 38 35
61 60 60 60 60 59 59 59 58 57 56 56 55 54 55 54 54 53 51 49 49 49 48 47 47 48 48 48 49 49 49 49 48 47 46 46 46 45 44 44 44 43 43 44 43 42 41 39 38 39 38 40 40 42 37 39 39 32 27 28 30 32 35
61 60 60 60 60 59 59 59 58 57 57 56 55 55 56 53 52 50 49 49 49 48 48 48 49 48 48 49 49 49 48 47 46 46 45 45 45 44 44 44 44 43 44 44 43 43 43 41 40 40 38 37 37 40 38 39 31 25 26 29 28 29 32
61 61 61 60 60 60 59 59 58 58 57 56 56 55 56 53 50 50 49 48 48 47 48 48 47 46 46 46 46 46 46 49 46 45 44 43 43 43 42 42 42 42 43 44 43 43 44 42 41 41 39 38 37 35 38 38 38 37 33 32 30 32 33
61 61 60 60 60 60 59 59 58 58 56 57 56 55 53 51 50 49 47 47 47 48 47 47 46 46 47 47 47 46 46 46 46 44 45 45 45 45 44 43 42 41 42 43 42 43 43 44 42 41 38 37 39 36 35 34 37 36 36 34 31 32 34
61 61 61 60 60 59 59 59 59 57 57 57 55 55 52 51 51 51 48 48 48 46 46 46 46 47 47 46 45 45 46 47 46 46 46 44 43 44 44 42 43 44 45 41 41 42 42 41 42 40 40 39 38 36 36 34 34 38 37 36 35 35 35
61 61 61 60 59 59 58 59 58 56 56 55 54 53 50 50 49 48 48 48 46 47 47 46 47 47 45 44 45 45 45 43 42 42 42 43 43 43 42 42 42 41 42 43 43 41 41 41 40 41 41 42 40 38 36 36 32 36 38 35 37 37 37
62 61 60 60 59 59 59 58 57 56 55 53 53 51 51 49 48 48 47 47 46 46 46 47 46 45 44 45 45 44 43 44 44 43 43 43 45 45 42 42 43 43 44 43 42 42 42 43 43 41 41 42 42 41 40 37 33 33 37 36 38 38 37
61 61 60 60 59 59 58 57 56 56 55 53 52 51 50 49 48 48 47 47 45 45 46 46 45 45 45 45 44 43 43 43 42 42 44 43 42 41 42 42 42 43 42 40 41 41 41 41 42 40 42 40 39 40 37 34 34 36 37 39 39 39 38
61 60 60 59 59 58 56 56 56 55 54 52 51 50 50 49 48 47 46 45 45 46 46 45 45 45 45 44 43 45 43 42 41 42 42 41 43 43 40 40 41 40 42 40 40 40 41 40 42 39 39 40 39 40 40 37 35 36 34 36 36 35 34
61 60 59 59 58 57 56 55 55 54 53 51 51 51 50 49 48 47 46 45 45 45 45 45 46 45 43 43 44 43 43 41 42 42 41 41 40 41 41 43 42 43 45 43 42 41 40 40 42 41 40 40 39 39 39 38 36 34 34 34 35 32 32
60 60 59 58 57 56 55 55 55 54 53 51 51 51 49 48 48 47 46 44 44 44 44 45 46 43 43 43 44 43 43 43 42 41 41 40 41 43 43 41 41 43 43 40 40 39 39 40 41 41 40 38 37 37 38 37 36 34 34 33 32 31 33
60 59 58 57 56 55 55 54 54 53 52 51 51 50 49 48 47 46 45 44 44 44 44 45 44 43 44 44 44 43 42 41 42 41 40 41 47 41 43 42 43 44 43 39 38 37 37 38 40 41 38 36 36 37 36 36 36 36 33 31 32 32 31
59 59 58 56 55 55 54 53 53 52 51 50 50 49 48 47 46 45 44 44 44 43 44 44 43 43 43 44 43 42 43 44 43 41 41 43 42 44 42 43 43 42 42 39 37 36 37 37 38 38 36 35 35 35 34 34 36 34 33 32 31 30 30
59 58 56 56 55 54 53 53 52 51 51 50 49 48 48 47 47 45 44 44 44 43 44 44 43 43 44 43 43 43 44 43 41 41 41 42 43 43 42 41 41 39 38 37 35 35 35 35 38 37 38 35 36 34 34 34 34 33 32 31 30 31 30
58 56 56 55 55 54 53 52 51 50 50 50 49 48 47 46 46 44 44 44 44 44 43 43 42 43 43 43 44 44 43 41 40 41 42 41 43 43 42 39 37 36 35 36 34 35 35 34 37 35 35 35 36 34 34 35 34 33 32 32 31 30 30
57 56 55 55 54 53 52 51 50 50 50 49 49 47 47 46 45 44 44 44 44 44 44 44 45 45 46 46 46 44 43 41 41 42 41 42 42 42 38 36 34 35 42 40 40 41 45 44 38 34 35 35 37 34 34 35 35 34 34 33 32 32 31
56 55 55 54 53 53 52 51 49 49 49 49 48 47 47 46 44 44 43 44 44 46 46 46 48 47 47 45 45 44 43 42 42 42 41 41 41 40 35 35 41 39 36 37 41 40 38 40 44 41 37 36 35 35 34 34 34 35 35 34 33 32 32
56 55 54 54 53 52 52 50 49 49 49 48 47 47 46 45 44 44 44 45 46 46 46 46 44 42 42 44 44 43 43 42 43 42 41 40 41 41 36 36 37 39 41 43 42 40 38 38 38 38 39 41 43 38 35 35 34 34 35 35 34 33 32
55 54 54 53 53 52 51 49 48 48 48 47 47 47 45 45 46 46 46 46 46 46 46 45 40 40 40 41 44 44 44 43 43 42 42 40 42 41 35 35 37 41 40 40 40 40 41 41 39 38 37 37 37 38 40 36 34 33 33 32 33 32 32
55 54 54 53 53 52 50 48 48 48 47 47 47 46 47 47 46 46 46 46 47 47 45 40 39 39 39 41 42 44 43 43 43 41 43 41 41 41 36 36 37 41 41 45 46 41 39 41 43 41 41 41 41 39 37 36 37 37 34 33 32 31 31
54 54 53 53 53 51 49 47 47 48 48 47 46 47 47 46 46 46 46 46 46 45 43 40 38 39 39 39 40 42 43 42 44 42 43 42 41 41 39 36 39 41 42 44 40 36 36 35 35 35 36 37 38 41 42 40 38 37 39 36 33 31 32
54 54 53 53 52 51 49 47 47 47 47 46 46 46 46 46 45 46 46 45 44 45 44 39 38 38 38 38 39 41 43 44 43 43 42 43 43 42 42 41 41 40 41 39 36 35 34 33 33 35 36 37 39 41 40 40 40 38 38 37 35 34 34
53 53 53 53 52 51 49 47 47 46 46 46 46 46 45 45 45 45 46 46 45 46 45 38 37 37 37 37 39 43 42 42 42 42 42 43 42 43 42 42 42 41 38 35 41 38 38 37 34 34 36 38 39 39 40 47 42 41 41 38 37 37 37
53 53 53 53 52 51 47 47 46 46 45 45 45 44 44 44 44 45 46 45 45 46 43 38 37 37 37 37 39 41 41 41 42 42 42 42 42 42 43 42 40 39 34 32 36 34 36 37 34 35 37 36 37 37 40 40 38 36 36 36 36 36 36
53 53 53 52 52 50 47 47 46 46 45 45 45 44 44 44 44 45 45 44 45 45 43 40 37 37 37 37 40 40 41 40 41 42 42 42 41 41 44 48 44 39 35 33 36 34 35 39 34 35 35 35 35 36 37 37 36 36 36 36 36 35 35
53 53 53 52 51 48 47 47 47 46 46 45 44 44 44 44 43 44 44 44 49 46 43 40 37 36 36 37 40 40 40 39 41 41 41 40 40 40 42 47 46 41 35 36 34 35 35 39 35 35 34 34 34 34 35 35 34 33 33 34 33 34 34
53 52 52 51 49 48 47 47 47 46 45 44 43 43 42 43 43 42 44 44 47 45 43 41 40 37 37 37 39 40 40 43 41 39 38 39 40 39 41 40 40 36 35 34 34 34 35 37 34 35 35 33 33 33 35 34 35 35 35 35 33 34 35
52 52 52 52 49 48 47 47 46 45 43 42 41 40 40 40 41 40 42 44 46 44 43 42 40 37 37 37 38 40 41 39 39 38 37 40 39 40 39 38 36 35 33 33 34 34 34 35 36 35 35 34 35 37 35 33 34 38 35 35 35 35 35
53 52 52 50 49 48 47 46 45 43 42 40 39 38 37 38 39 41 44 47 45 44 45 44 40 37 37 37 37 39 39 40 39 38 39 38 38 38 39 37 34 35 33 33 33 33 34 35 35 38 35 35 35 35 35 36 35 35 35 35 33 34 35
52 52 51 49 48 47 45 44 43 42 40 38 37 37 38 41 42 45 46 46 44 44 43 43 39 39 36 36 36 37 37 36 37 39 37 37 37 37 38 36 36 37 32 32 33 33 34 34 35 34 34 34 34 34 35 35 34 34 33 33 33 34 35
51 50 50 48 47 45 45 44 43 42 40 38 37 41 43 44 44 44 44 45 44 44 43 41 39 37 37 36 36 36 36 35 34 35 37 35 36 34 34 37 35 35 32 32 32 33 34 34 33 33 34 34 34 35 33 33 32 33 33 34 34 35 33